Miscellaneous Local Product
Issued by NWS North Platte, NE

Home | Current Version | Previous Version | Graphics & Text | Print | Product List | Glossary On
Versions: 1 2 3 4 5 6 7 8 9 10 11 12 13 14 15 16 17 18 19 20 21 22 23 24 25 26 27 28 29 30 31 32 33 34 35 36 37 38 39 40 41 42 43 44 45 46 47 48 49 50
000
AXUS43 KLBF 030010
MISLBF


WESTERN AND NORTH CENTRAL NEBRASKA HOURLY WEATHER ROUNDUP
NATIONAL WEATHER SERVICE NORTH PLATTE NE
700 PM CDT THU JUL 02 2015

***STATIONS NOT REPORTING VARIABLES SUCH AS SKY/WEATHER OR
PRESSURE ARE PROVIDED BY THE NEBRASKA DEPARTMENT OF
ROADS...RAWS...AND APRS NETWORKS...AND ARE NOT UNDER
NATIONAL WEATHER SERVICE QUALITY CONTROL***

...OBSERVATIONS IN AND NEAR THE EASTERN PANHANDLE OF NEBRASKA...

CITY           SKY/WX    TMP DP  RH WIND       PRES   REMARKS
PINE RIDGE     MOSUNNY   79  57  46 N10       30.06S
CHADRON        MOSUNNY   79  59  50 NE14      30.06S
ALLIANCE       SUNNY     78  59  51 N6        30.07F
SIDNEY         SUNNY     79  54  41 N8        30.11F
WHITECLAY        N/A     78  56  47 W8          N/A
BIG SPRINGS      N/A     82  60  46 NE7         N/A
$$

...OBSERVATIONS IN NORTH CENTRAL NEBRASKA...

CITY           SKY/WX    TMP DP  RH WIND       PRES   REMARKS
VALENTINE      SUNNY     78  61  55 N9        30.00S
THEDFORD       PTSUNNY   78  58  48 NW13      30.02F
AINSWORTH      MOSUNNY   77  60  56 N10       30.00S
O`NEILL        PTSUNNY   72  65  80 NE6       29.98S
ORD            MOSUNNY   78  62  57 N15       29.93F
BROKEN BOW     SUNNY     80  60  50 N10G18    29.96F
VALENTINE NWR    N/A     78  57  47 N9G18       N/A
SPRINGVIEW       N/A     77  62  59 N5G15       N/A
HALSEY           N/A     79  56  44 N7G16       N/A
BREWSTER         N/A     83  62  48 N12         N/A
ROSE             N/A     89  73  59 NE13        N/A  HX  97
NEWPORT          N/A     73  66  80 E10         N/A
SARGENT          N/A     79  60  52 MISG        N/A
CHAMBERS         N/A     77  65  65 E6          N/A
EWING            N/A     68  64  86 E7          N/A
$$

...OBSERVATIONS IN SOUTHWEST NEBRASKA AND FAR NORTHEAST COLORADO...

CITY           SKY/WX    TMP DP  RH WIND       PRES   REMARKS
WRAY           FAIR      84  54  34 N13G21    30.06S
HOLYOKE        FAIR      84  50  30 N10G16    30.06F
IMPERIAL       SUNNY     85  55  35 N10       30.03F
OGALLALA       SUNNY     81  58  45 N9        30.04F
NORTH PLATTE   MOSUNNY   82  57  42 N12       29.99F
MCCOOK         MOSUNNY   86  60  41 N14       29.97F
LEXINGTON      SUNNY     82  56  40 N15G22    29.96F
PAXTON           N/A     82  62  50 NW7         N/A
GOTHENBURG       N/A     81  54  38 NW9         N/A
CALLAWAY         N/A     79  60  52 N12         N/A
$$

...NORTH PLATTE AREA...

CITY           SKY/WX    TMP DP  RH WIND       PRES   REMARKS
AIRPORT        MOSUNNY   82  57  42 N12       29.99F
DOWNTOWN         N/A     81  59  46 N7G14       N/A
HILLCREST        N/A     80  57  45 NE14        N/A
$$

...SOME WEATHER OBSERVATIONS FROM AROUND THE REGION...

CITY           SKY/WX    TMP DP  RH WIND       PRES   REMARKS
DENVER         MOSUNNY   80  50  34 SE7       30.14F
LARAMIE        PTSUNNY   72  54  53 E14       30.27F
CHEYENNE       PTSUNNY   78  51  38 NE7       30.21S
SCOTTSBLUFF    SUNNY     83  55  38 N12       30.08F
RAPID CITY     SUNNY     78  57  48 N20       30.06S
PIERRE         SUNNY     78  64  61 NE6       29.95F
WINNER         FAIR      77  61  57 NE9       29.98R
SIOUX FALLS    CLOUDY    69  57  65 E3        29.98F
OMAHA          LGT RAIN  70  63  78 E5        29.94F
GRAND ISLAND   SUNNY     74  66  76 NE16      29.93R
KANSAS CITY    CLOUDY    69  67  93 E8        29.92S FOG
WICHITA        PTSUNNY   78  69  73 CALM      29.86F
HAYS           SUNNY     84  61  45 N3        29.92F
LIBERAL        PTSUNNY   73  63  68 E16         N/A
GOODLAND       SUNNY     84  55  36 N12       30.04F
$$



USA.gov is the U.S. government's official web portal to all federal, state and local government web resources and services.